sat.trackr.live / text

‹ back to catalog

STARLINK-6205

NORAD 56898 · 2023-083Y

PAYLOAD ACTIVE UNKNOWN

§ Identity

Operator
Country
US
Launch date
2023-06-12
Launch site
AFETR
Launch vehicle
Mass (kg)
RCS (m²)

Purposes: comms

External: N2YO · Heavens-Above · Gunter

§ Orbital elements

Epoch: 2026-05-25T00:52:11.047872Z

Period
94.27 min
Inclination
43.0044°
Eccentricity
0.0001305
Mean motion
15.27577899 rev/d
Perigee alt
482.2 km
Apogee alt
484.0 km
Semi-major
6,861.2 km
B*
2.5975e-5
RAAN
10.8668°
Arg perigee
247.3193°
Mean anomaly
112.7521°
Rev number
16,345

§ Raw data

STARLINK-62051 56898U 23083Y   26145.03623898  .00000453  00000+0  25975-4 0  99922 56898  43.0044  10.8668 0001305 247.3193 112.7521 15.27577899163458

JSON: /api/v1/satellites/56898 · /tle

For live sub-satellite position, see the globe view (requires WebGL).

§ Visibility from observer

Set your observer location to see the next 7 days of passes ≥ 10°. The values pass through the URL so the page stays shareable.

No JS? Fill the form by hand. The geolocation button needs JavaScript.